Regional Weather Roundup
Issued by NWS

Home | Current Version | Previous Version | Text Only | Print | Product List | Glossary On
Versions: 1 2 3 4 5 6 7 8 9 10 11 12 13 14 15 16 17 18 19 20 21 22 23 24 25 26 27 28 29 30 31 32 33 34 35 36 37 38 39 40 41 42 43 44 45 46 47 48 49 50
000
ASUS43 KLMK 102010
RWRKY
KENTUCKY REGIONAL WEATHER ROUNDUP
NATIONAL WEATHER SERVICE LOUISVILLE KY
300 PM EST WED FEB 10 2016

NOTE "FAIR" INDICATES FEW OR NO CLOUDS BELOW 12,000 FEET
WITH NO SIGNIFICANT WEATHER AND/OR OBSTRUCTIONS TO VISIBILITY.

KYZ001>023-026-027-061>063-070>075-102100-
WESTERN AND SOUTH CENTRAL KENTUCKY

CITY           SKY/WX    TMP DP  RH WIND       PRES   REMARKS
PADUCAH        LGT SNOW  24  15  68 W8        30.17F WCI  15
HENDERSON      CLOUDY    25   9  50 W8        30.14F WCI  16
OWENSBORO      MOSUNNY   24  10  55 W13       30.15F WCI  12
HOPKINSVILLE   CLOUDY    26   9  49 W10       30.15S WCI  16
BOWLING GREEN  MOSUNNY   26   9  48 SW12      30.15S WCI  16
GLASGOW        MOSUNNY   24  11  56 W14G20    30.12S WCI  12
$$

KYZ024-025-028>034-038-045-046-053-102100-
NORTH CENTRAL KENTUCKY

CITY           SKY/WX    TMP DP  RH WIND       PRES   REMARKS
LOUISVILLE/SDF PTSUNNY   23   8  52 W10       30.09F WCI  12
LOUISVILLE/LOU PTSUNNY   22   7  52 W13G20    30.09F WCI  10
FORT KNOX      CLOUDY    21   9  58 W16       30.07F WCI   7
$$

KYZ035>037-039>044-047>052-055>060-089>105-102100-
NORTHEAST KENTUCKY

CITY           SKY/WX    TMP DP  RH WIND       PRES   REMARKS
LEXINGTON      CLOUDY    18   8  65 W13       30.05S WCI   5
COVINGTON      CLOUDY    17   8  67 SW9       30.01F HAZE    WCI   6
FRANKFORT      CLOUDY    18   5  57 SW9G22    30.06S WCI   7
$$

KYZ054-064>069-076>088-106>120-102100-
SOUTHEAST KENTUCKY

CITY           SKY/WX    TMP DP  RH WIND       PRES   REMARKS
JACKSON        LGT SNOW  18  10  71 VRB7G17   30.01R WCI   9
LONDON         CLOUDY    18   6  59 W14       30.05F WCI   4
SOMERSET       CLOUDY    19   9  63 W14       30.11S WCI   6
MIDDLESBORO    PTSUNNY   25   9  51 W10G18    30.06R WCI  15
MONTICELLO     CLOUDY    21   9  59 W18G25    30.11F WCI   6
$$




USA.gov is the U.S. government's official web portal to all federal, state and local government web resources and services.